TimeCDT,TemperatureF,Dew PointF,Humidity,Sea Level PressureIn,VisibilityMPH,Wind Direction,Wind SpeedMPH,Gust SpeedMPH,PrecipitationIn,Events,Conditions,WindDirDegrees,DateUTC
12:15 AM,39.2,33.8,81,30.33,10.0,East,8.1,-,N/A,,Clear,80,2013-10-29 05:15:00
12:35 AM,39.2,33.8,81,30.33,10.0,East,6.9,-,N/A,,Partly Cloudy,80,2013-10-29 05:35:00
12:55 AM,39.2,32.0,75,30.32,10.0,East,8.1,-,N/A,,Partly Cloudy,80,2013-10-29 05:55:00
1:15 AM,39.2,32.0,75,30.33,10.0,East,6.9,-,N/A,,Mostly Cloudy,80,2013-10-29 06:15:00
1:35 AM,39.2,32.0,75,30.34,10.0,ENE,5.8,-,N/A,,Overcast,70,2013-10-29 06:35:00
1:55 AM,39.2,32.0,75,30.33,10.0,ENE,8.1,-,N/A,,Mostly Cloudy,70,2013-10-29 06:55:00
2:15 AM,39.2,32.0,75,30.32,10.0,East,8.1,-,N/A,,Mostly Cloudy,80,2013-10-29 07:15:00
2:35 AM,39.2,32.0,75,30.33,10.0,East,5.8,-,N/A,,Overcast,80,2013-10-29 07:35:00
2:55 AM,39.2,32.0,75,30.33,10.0,ENE,6.9,15.0,N/A,,Scattered Clouds,70,2013-10-29 07:55:00
3:15 AM,37.4,32.0,81,30.33,10.0,ENE,5.8,11.5,N/A,,Clear,60,2013-10-29 08:15:00
3:35 AM,37.4,32.0,81,30.32,10.0,ENE,8.1,-,N/A,,Clear,70,2013-10-29 08:35:00
3:55 AM,37.4,30.2,75,30.31,10.0,ENE,8.1,-,N/A,,Clear,70,2013-10-29 08:55:00
4:15 AM,37.4,32.0,81,30.31,10.0,ENE,5.8,-,N/A,,Clear,60,2013-10-29 09:15:00
9:35 AM,41.0,37.4,87,30.28,10.0,East,10.4,-,N/A,,Clear,90,2013-10-29 14:35:00
9:55 AM,41.0,37.4,87,30.28,10.0,East,9.2,-,N/A,,Clear,100,2013-10-29 14:55:00
10:15 AM,44.6,37.4,76,30.27,10.0,ESE,10.4,-,N/A,,Clear,110,2013-10-29 15:15:00
10:35 AM,44.6,37.4,76,30.27,10.0,ESE,9.2,16.1,N/A,,Clear,110,2013-10-29 15:35:00
10:55 AM,46.4,37.4,71,30.26,10.0,East,9.2,17.3,N/A,,Partly Cloudy,100,2013-10-29 15:55:00
11:15 AM,46.4,37.4,71,30.25,10.0,East,12.7,-,N/A,,Clear,100,2013-10-29 16:15:00
11:35 AM,48.2,37.4,66,30.23,10.0,ESE,12.7,19.6,N/A,,Clear,120,2013-10-29 16:35:00
11:55 AM,50.0,37.4,62,30.23,10.0,SE,12.7,-,N/A,,Clear,130,2013-10-29 16:55:00
12:15 PM,51.8,37.4,58,30.22,10.0,ESE,10.4,-,N/A,,Clear,120,2013-10-29 17:15:00
12:35 PM,51.8,37.4,58,30.21,10.0,ESE,15.0,-,N/A,,Clear,120,2013-10-29 17:35:00
12:55 PM,53.6,37.4,54,30.19,10.0,ESE,12.7,19.6,N/A,,Clear,120,2013-10-29 17:55:00
1:15 PM,55.4,37.4,51,30.18,10.0,SE,13.8,19.6,N/A,,Clear,130,2013-10-29 18:15:00
1:35 PM,57.2,37.4,48,30.17,10.0,SE,12.7,-,N/A,,Clear,130,2013-10-29 18:35:00
1:55 PM,57.2,37.4,48,30.15,-9999.0,SE,9.2,16.1,N/A,,Clear,140,2013-10-29 18:55:00
2:15 PM,59.0,37.4,45,30.14,10.0,ESE,11.5,-,N/A,,Clear,120,2013-10-29 19:15:00
2:35 PM,59.0,37.4,45,30.13,10.0,SE,12.7,19.6,N/A,,Partly Cloudy,140,2013-10-29 19:35:00
2:55 PM,59.0,37.4,45,30.13,10.0,SE,12.7,-,N/A,,Clear,130,2013-10-29 19:55:00
3:15 PM,59.0,37.4,45,30.13,10.0,SE,11.5,-,N/A,,Mostly Cloudy,130,2013-10-29 20:15:00
3:35 PM,57.2,37.4,48,30.12,10.0,SE,8.1,13.8,N/A,,Mostly Cloudy,130,2013-10-29 20:35:00
3:55 PM,57.2,37.4,48,30.11,10.0,ESE,11.5,-,N/A,,Overcast,120,2013-10-29 20:55:00
4:15 PM,55.4,37.4,51,30.11,10.0,SE,8.1,-,N/A,,Overcast,130,2013-10-29 21:15:00
4:35 PM,55.4,37.4,51,30.11,10.0,ESE,9.2,-,N/A,,Overcast,120,2013-10-29 21:35:00
4:55 PM,55.4,39.2,54,30.11,10.0,ESE,8.1,-,N/A,,Overcast,120,2013-10-29 21:55:00
5:15 PM,55.4,39.2,54,30.10,10.0,ESE,9.2,-,N/A,,Overcast,110,2013-10-29 22:15:00
5:35 PM,55.4,39.2,54,30.11,10.0,SE,6.9,-,N/A,,Overcast,130,2013-10-29 22:35:00
5:55 PM,55.4,39.2,54,30.11,10.0,ESE,5.8,-,N/A,,Overcast,110,2013-10-29 22:55:00
6:15 PM,55.4,37.4,51,30.10,10.0,East,8.1,-,N/A,,Overcast,100,2013-10-29 23:15:00
6:35 PM,53.6,37.4,54,30.10,10.0,East,6.9,-,N/A,,Overcast,100,2013-10-29 23:35:00
6:55 PM,53.6,37.4,54,30.10,10.0,ESE,9.2,-,N/A,,Overcast,110,2013-10-29 23:55:00
7:15 PM,53.6,37.4,54,30.10,10.0,SE,10.4,-,N/A,,Overcast,130,2013-10-30 00:15:00
7:35 PM,53.6,39.2,58,30.11,10.0,SE,9.2,-,N/A,,Overcast,140,2013-10-30 00:35:00
7:55 PM,53.6,39.2,58,30.10,10.0,ESE,11.5,-,N/A,,Overcast,120,2013-10-30 00:55:00
8:15 PM,53.6,39.2,58,30.09,10.0,SE,12.7,-,N/A,,Overcast,130,2013-10-30 01:15:00
8:35 PM,53.6,39.2,58,30.09,10.0,SE,12.7,-,N/A,,Overcast,130,2013-10-30 01:35:00
8:55 PM,51.8,41.0,67,30.09,10.0,SE,11.5,-,N/A,,Overcast,130,2013-10-30 01:55:00
9:15 PM,51.8,41.0,67,30.09,10.0,SE,10.4,-,N/A,,Overcast,130,2013-10-30 02:15:00
9:35 PM,51.8,41.0,67,30.09,10.0,SE,9.2,-,N/A,,Overcast,130,2013-10-30 02:35:00
9:55 PM,51.8,41.0,67,30.11,-9999.0,SE,9.2,-,N/A,,Overcast,130,2013-10-30 02:55:00
10:15 PM,51.8,41.0,67,30.11,10.0,SE,8.1,-,N/A,,Overcast,130,2013-10-30 03:15:00
10:35 PM,51.8,41.0,67,30.11,10.0,SE,9.2,15.0,N/A,,Overcast,130,2013-10-30 03:35:00
10:55 PM,51.8,41.0,67,30.10,10.0,SE,10.4,-,N/A,,Overcast,130,2013-10-30 03:55:00
11:15 PM,51.8,41.0,67,30.09,10.0,SE,10.4,-,N/A,,Overcast,130,2013-10-30 04:15:00
11:35 PM,50.0,41.0,71,30.08,10.0,SE,8.1,15.0,N/A,,Overcast,130,2013-10-30 04:35:00
11:55 PM,50.0,41.0,71,30.08,10.0,ESE,6.9,-,N/A,,Overcast,120,2013-10-30 04:55:00